sat.trackr.live / text

‹ back to catalog

STARLINK-5623

NORAD 55405 · 2023-014Q

PAYLOAD ACTIVE UNKNOWN

§ Identity

Operator
Country
US
Launch date
2023-01-31
Launch site
AFWTR
Launch vehicle
Mass (kg)
RCS (m²)

Purposes: comms

External: N2YO · Heavens-Above · Gunter

§ Orbital elements

Epoch: 2026-05-24T23:46:46.801344Z

Period
96.11 min
Inclination
69.9994°
Eccentricity
0.0003660
Mean motion
14.98330124 rev/d
Perigee alt
569.5 km
Apogee alt
574.6 km
Semi-major
6,950.2 km
B*
1.6328e-5
RAAN
232.1086°
Arg perigee
269.1454°
Mean anomaly
90.9285°
Rev number
18,348

§ Raw data

STARLINK-56231 55405U 23014Q   26144.99081946  .00000102  00000+0  16328-4 0  99982 55405  69.9994 232.1086 0003660 269.1454  90.9285 14.98330124183487

JSON: /api/v1/satellites/55405 · /tle

For live sub-satellite position, see the globe view (requires WebGL).

§ Visibility from observer

Set your observer location to see the next 7 days of passes ≥ 10°. The values pass through the URL so the page stays shareable.

No JS? Fill the form by hand. The geolocation button needs JavaScript.